EW3643 Weather Reports


Display with metric or nautical units.
time (UTC)temp
F
wind
direction
speed
MPH
gust
MPH
rain 1hr
in
rain 24hr
in
rain mn
in
humidity
%
barometer
mb
20260505035533 0 0.0 0.0 0.00 0.00 0.00 1020.7
20260505035030 0 0.0 0.0 0.00 0.00 0.00 1020.7
20260505034032 0 0.0 0.0 0.00 0.00 0.00 1020.9
20260505033529 0 0.0 0.0 0.00 0.00 0.00 1020.9
20260505033028 0 0.0 0.0 0.00 0.00 0.00 1020.9
20260505032521 0 0.0 0.0 0.00 0.00 0.00 1020.9
20260505032012 0 0.0 0.0 0.00 0.00 0.00 1021.0
20260505031507 0 0.0 0.0 0.00 0.00 0.00 1021.0
20260505031008 0 0.0 0.0 0.00 0.00 0.00 1021.0
20260505030508 0 0.0 0.0 0.00 0.00 0.00 1021.1
20260505030005 0 0.0 0.0 0.00 0.00 0.00 1021.0
20260505025504 0 0.0 0.0 0.00 0.00 0.00 1020.9
20260505025005 0 0.0 0.0 0.00 0.00 0.00 1021.0
20260505024503 0 0.0 0.0 0.00 0.00 0.00 1021.1
20260505024003 0 0.0 0.0 0.00 0.00 0.00 1020.9
20260505023504 0 0.0 0.0 0.00 0.00 0.00 1021.1
20260505023001 0 0.0 0.0 0.00 0.00 0.00 1021.0
20260505022503 0 0.0 0.0 0.00 0.00 0.00 1021.0
20260505022005 0 0.0 0.0 0.00 0.00 0.00 1021.0
20260505021004 0 0.0 0.0 0.00 0.00 0.00 1020.9
20260505020501 0 0.0 0.0 0.00 0.00 0.00 1021.0
20260505015942 0 0.0 0.0 0.00 0.00 0.00 1020.9
20260505015433 0 0.0 0.0 0.00 0.00 0.00 1020.9
20260505014440 0 0.0 0.0 0.00 0.00 0.00 1020.9
20260505013930 0 0.0 0.0 0.00 0.00 0.00 1021.0
20260505013428 0 0.0 0.0 0.00 0.00 0.00 1020.8
20260505012919 0 0.0 0.0 0.00 0.00 0.00 1020.7
20260505011909 0 0.0 0.0 0.00 0.00 0.00 1020.7
20260505011409 0 0.0 0.0 0.00 0.00 0.00 1020.7
20260505010408 0 0.0 0.0 0.00 0.00 0.00 1020.6
20260505005907 0 0.0 0.0 0.00 0.00 0.00 1020.5
20260505005405 0 0.0 0.0 0.00 0.00 0.00 1020.5
20260505003901 0 0.0 0.0 0.00 0.00 0.00 1020.3
20260505003354 0 0.0 0.0 0.00 0.00 0.00 1020.3
20260505002848 0 0.0 0.0 0.00 0.00 0.00 1020.5
20260505002331 0 0.0 0.0 0.00 0.00 0.00 1020.4
20260505001830 0 0.0 0.0 0.00 0.00 0.00 1020.3
20260505000832 0 0.0 0.0 0.00 0.00 0.00 1020.4
20260505000329 68 0.0 0.0 0.00 0.00 0.00 48 1020.5
20260504235829 68 190 3.0 2.0 0.00 0.00 0.00 48 1020.4
20260504235331 68 190 3.0 4.0 0.00 0.00 0.00 48 1010.7
20260504234830 68 190 3.0 6.0 0.00 0.00 0.00 48 1010.7
20260504234332 69 198 3.0 8.0 0.00 0.00 0.00 48 1010.6
20260504233831 69 198 3.0 8.0 0.00 0.00 0.00 46 1010.8
20260504232830 70 173 3.0 6.0 0.00 0.00 0.00 47 1010.8
20260504232332 70 209 3.0 7.0 0.00 0.00 0.00 46 1010.8
20260504231830 70 182 3.0 7.0 0.00 0.00 0.00 44 1010.8
20260504231330 71 182 4.0 8.0 0.00 0.00 0.00 44 1010.8
20260504230830 71 166 4.0 8.0 0.00 0.00 0.00 43 1010.9
20260504230330 71 189 5.0 14.0 0.00 0.00 0.00 43 1010.7
20260504225830 71 213 6.0 14.0 0.00 0.00 0.00 44 1010.8
20260504225330 71 197 6.0 10.0 0.00 0.00 0.00 41 1010.7
20260504224831 72 225 6.0 11.0 0.00 0.00 0.00 43 1010.8
20260504224330 72 204 5.0 11.0 0.00 0.00 0.00 42 1010.7
20260504223830 72 186 4.0 11.0 0.00 0.00 0.00 44 1010.7
20260504223330 72 169 5.0 11.0 0.00 0.00 0.00 44 1010.7
20260504222831 72 207 7.0 12.0 0.00 0.00 0.00 42 1010.7
20260504221331 72 211 7.0 12.0 0.00 0.00 0.00 41 1010.7
20260504220831 72 203 8.0 14.0 0.00 0.00 0.00 43 1010.8
20260504220329 72 176 7.0 14.0 0.00 0.00 0.00 41 1010.8
20260504215832 72 182 5.0 14.0 0.00 0.00 0.00 42 1010.9
20260504215329 73 186 5.0 11.0 0.00 0.00 0.00 42 1010.8
20260504214831 73 190 6.0 13.0 0.00 0.00 0.00 42 1010.7
20260504214330 73 177 6.0 13.0 0.00 0.00 0.00 42 1010.8
20260504213830 72 205 7.0 13.0 0.00 0.00 0.00 41 1010.9
20260504213331 73 200 8.0 13.0 0.00 0.00 0.00 45 1010.9
20260504212829 72 213 8.0 15.0 0.00 0.00 0.00 42 1010.9
20260504212330 72 209 8.0 17.0 0.00 0.00 0.00 41 1010.9
20260504211831 73 198 9.0 17.0 0.00 0.00 0.00 43 1010.9
20260504211332 73 189 10.0 17.0 0.00 0.00 0.00 40 1011.0
20260504210330 73 236 8.0 16.0 0.00 0.00 0.00 41 1011.0
20260504205831 73 211 9.0 16.0 0.00 0.00 0.00 42 1010.9
20260504205329 73 204 9.0 14.0 0.00 0.00 0.00 39 1011.0
20260504204330 72 185 10.0 19.0 0.00 0.00 0.00 41 1011.1
20260504203830 72 198 9.0 18.0 0.00 0.00 0.00 41 1011.0
20260504202329 72 171 9.0 16.0 0.00 0.00 0.00 39 1011.1
20260504201832 72 200 10.0 21.0 0.00 0.00 0.00 39 1011.2
20260504201330 71 202 11.0 21.0 0.00 0.00 0.00 42 1011.1
20260504200831 71 220 10.0 17.0 0.00 0.00 0.00 41 1011.1
20260504200330 72 206 9.0 17.0 0.00 0.00 0.00 42 1011.4
20260504195830 72 224 10.0 16.0 0.00 0.00 0.00 41 1011.4
20260504195330 71 225 10.0 17.0 0.00 0.00 0.00 41 1011.6
20260504194330 71 234 10.0 18.0 0.00 0.00 0.00 40 1012.0
20260504193831 71 169 11.0 18.0 0.00 0.00 0.00 41 1012.0
20260504193331 71 200 9.0 17.0 0.00 0.00 0.00 37 1012.1
20260504192829 71 219 9.0 17.0 0.00 0.00 0.00 41 1012.3
20260504192329 71 232 9.0 14.0 0.00 0.00 0.00 40 1012.3
20260504191830 71 215 10.0 22.0 0.00 0.00 0.00 41 1012.5
20260504191332 71 211 10.0 22.0 0.00 0.00 0.00 41 1012.5
20260504190830 70 245 10.0 17.0 0.00 0.00 0.00 42 1012.6
20260504190330 71 202 10.0 16.0 0.00 0.00 0.00 42 1012.6
20260504185831 71 217 11.0 17.0 0.00 0.00 0.00 39 1012.6
20260504185329 71 230 10.0 17.0 0.00 0.00 0.00 43 1012.6
20260504184832 71 211 8.0 15.0 0.00 0.00 0.00 41 1012.5
20260504184330 70 247 9.0 15.0 0.00 0.00 0.00 40 1012.7
20260504183330 71 217 9.0 17.0 0.00 0.00 0.00 42 1012.7
20260504182832 70 187 9.0 17.0 0.00 0.00 0.00 43 1012.8
20260504182331 70 207 8.0 15.0 0.00 0.00 0.00 44 1012.8
20260504181829 69 246 9.0 16.0 0.00 0.00 0.00 43 1012.9
20260504180831 69 204 9.0 16.0 0.00 0.00 0.00 44 1013.0
20260504180330 69 195 7.0 13.0 0.00 0.00 0.00 41 1013.1
20260504175830 69 243 7.0 15.0 0.00 0.00 0.00 41 1013.1
20260504175330 69 197 8.0 15.0 0.00 0.00 0.00 43 1013.3
20260504174830 70 234 8.0 16.0 0.00 0.00 0.00 44 1013.2
20260504174331 69 180 8.0 16.0 0.00 0.00 0.00 42 1013.2
20260504173331 69 226 9.0 16.0 0.00 0.00 0.00 42 1013.4
20260504172830 69 183 9.0 16.0 0.00 0.00 0.00 42 1013.5
20260504172331 69 213 9.0 17.0 0.00 0.00 0.00 41 1013.6
20260504171829 68 173 9.0 17.0 0.00 0.00 0.00 44 1013.5
20260504171330 68 205 9.0 16.0 0.00 0.00 0.00 40 1013.7
20260504170831 69 204 9.0 16.0 0.00 0.00 0.00 42 1013.8
20260504170330 68 200 9.0 16.0 0.00 0.00 0.00 46 1013.9
20260504160330 65 247 8.0 12.0 0.00 0.00 0.00 48 1014.6
20260504150833 63 228 7.0 12.0 0.00 0.00 0.00 54 1014.9
20260504150330 63 227 7.0 13.0 0.00 0.00 0.00 55 1014.8
20260504141329 0 0.0 0.0 0.00 0.00 0.00 1024.7
20260504140832 0 0.0 0.0 0.00 0.00 0.00 1024.7
20260504140333 0 0.0 0.0 0.00 0.00 0.00 1024.7
20260504130818 0 0.0 0.0 0.00 0.00 0.00 1025.0
20260504130312 0 0.0 0.0 0.00 0.00 0.00 1025.0
20260504120302 0 0.0 0.0 0.00 0.00 0.00 1025.2
20260504110702 0 0.0 0.0 0.00 0.00 0.00 1025.5
20260504110201 0 0.0 0.0 0.00 0.00 0.00 1025.5
20260504100203 0 0.0 0.0 0.00 0.00 0.00 1025.6
20260504081627 0 0.0 0.0 0.00 0.00 0.00 1025.7
20260504081119 0 0.0 0.0 0.00 0.00 0.00 1025.7
20260504080613 0 0.0 0.0 0.00 0.00 0.00 1025.6
20260504050505 0 0.0 0.0 0.00 0.00 0.00 1025.7
20260504050002 0 0.0 0.0 0.00 0.00 0.00 1025.7
20260504045506 0 0.0 0.0 0.00 0.00 0.00 1025.7
20260504044506 0 0.0 0.0 0.00 0.00 0.00 1025.8
20260504044005 0 0.0 0.0 0.00 0.00 0.00 1025.7
20260504043505 0 0.0 0.0 0.00 0.00 0.00 1025.7
20260504043002 0 0.0 0.0 0.00 0.00 0.00 1025.7
20260504042506 0 0.0 0.0 0.00 0.00 0.00 1025.7
20260504042005 0 0.0 0.0 0.00 0.00 0.00 1025.7
20260504041504 0 0.0 0.0 0.00 0.00 0.00 1025.6
20260504041001 0 0.0 0.0 0.00 0.00 0.00 1025.4
20260504040504 0 0.0 0.0 0.00 0.00 0.00 1025.4
20260504040013 0 0.0 0.0 0.00 0.00 0.00 1025.3